Weather History for Philadelphia Wings Airport, PA

Change the Weather History Date:

Wednesday, March 12, 2014

  Actual Average (KPNE) Record (KPNE)
Temperature  
Mean Temperature 48 °F -  
Max Temperature 64 °F 46 °F 70 °F (2014)
Min Temperature 30 °F 30 °F 19 °F (1998)
Degree Days  
Heating Degree Days 17    
Moisture  
Dew Point 41 °F    
Average Humidity 73    
Maximum Humidity 88    
Minimum Humidity 42    
Precipitation  
Precipitation 0.31 in - - ()
Sea Level Pressure  
Sea Level Pressure 29.33 in    
Wind  
Wind Speed 4 mph (SSW)    
Max Wind Speed 22 mph    
Max Gust Speed 32 mph    
Visibility 9 miles    
Events      
Averages and records for this station are not official NWS values.
T = Trace of Precipitation, MM = Missing Value Source: NWS Daily Summary

Daily Weather History Graph

Daily Weather History Graph

Search for Another Location

Airport:

Trip Planner

Search our weather history database for the weather conditions in past years. The results will help you decide how hot, cold, wet, or windy it might be!

Date:

Astronomy

Mar. 12, 2014 Rise Set
Actual Time 7:17 AM EDT 7:04 PM EDT
Civil Twilight 6:50 AM EDT 7:31 PM EDT
Nautical Twilight 6:18 AM EDT 8:03 PM EDT
Astronomical Twilight 5:47 AM EDT 8:35 PM EDT
Moon 3:33 PM EDT (3/12) 4:47 AM EDT (3/12)
Length of Visible Light 12h 41m
Length of Day
11h 47m
Waxing Gibbous, 85% of the Moon is Illuminated
Mar 12
Waxing Gibbous
Mar 16
Full
Mar 23
Last Quarter
Mar 30
New
Apr 7
First Quarter

Hourly Weather History & Observations

Time (EDT) Temp. Windchill Dew Point Humidity Pressure Visibility Wind Dir Wind Speed Gust Speed Precip Events Conditions
12:15 AM 42.8 °F - 37.4 °F 81% 29.66 in 10.0 mi Calm Calm - N/A   Clear
12:35 AM 42.8 °F - 37.4 °F 81% 29.66 in 10.0 mi Calm Calm - N/A   Clear
12:55 AM 42.8 °F - 37.4 °F 81% 29.66 in 10.0 mi Calm Calm - N/A   Clear
1:15 AM 41.0 °F - 35.6 °F 81% 29.65 in 10.0 mi Calm Calm - N/A   Clear
1:35 AM 42.8 °F - 35.6 °F 76% 29.65 in 10.0 mi Calm Calm - N/A   Clear
1:55 AM 41.0 °F - 35.6 °F 81% 29.65 in 10.0 mi Calm Calm - N/A   Clear
2:15 AM 41.0 °F - 37.4 °F 87% 29.64 in 10.0 mi Calm Calm - N/A   Clear
2:35 AM 42.8 °F - 37.4 °F 81% 29.64 in 10.0 mi Calm Calm - N/A   Clear
2:55 AM 41.0 °F - 35.6 °F 81% 29.63 in 10.0 mi Calm Calm - N/A   Clear
3:15 AM 39.2 °F - 35.6 °F 87% 29.61 in 7.0 mi Calm Calm - N/A   Clear
3:35 AM 39.2 °F - 35.6 °F 87% 29.59 in 10.0 mi Calm Calm - N/A   Clear
3:55 AM 39.2 °F - 35.6 °F 87% 29.58 in 10.0 mi Calm Calm - N/A   Clear
4:15 AM 39.2 °F - 35.6 °F 87% 29.57 in 10.0 mi Calm Calm - N/A   Clear
4:35 AM 39.2 °F - 35.6 °F 87% 29.56 in 10.0 mi Calm Calm - N/A   Clear
4:55 AM 39.2 °F - 35.6 °F 87% 29.56 in 10.0 mi Calm Calm - N/A   Clear
5:15 AM 39.2 °F - 35.6 °F 87% 29.56 in 10.0 mi Calm Calm - N/A   Clear
5:35 AM 39.2 °F - 35.6 °F 87% 29.55 in 10.0 mi Calm Calm - N/A   Clear
5:55 AM 39.2 °F - 35.6 °F 87% 29.54 in 10.0 mi Calm Calm - N/A   Clear
6:15 AM 39.2 °F - 35.6 °F 87% 29.53 in 10.0 mi Calm Calm - N/A   Clear
6:35 AM 41.0 °F - 37.4 °F 87% 29.52 in 10.0 mi Calm Calm - N/A   Clear
6:55 AM 41.0 °F - 35.6 °F 81% 29.51 in 10.0 mi Calm Calm - N/A   Clear
7:15 AM 41.0 °F - 35.6 °F 81% 29.50 in 10.0 mi Calm Calm - N/A   Clear
7:35 AM 42.8 °F - 35.6 °F 76% 29.50 in 10.0 mi Calm Calm - N/A   Clear
7:55 AM 44.6 °F - 37.4 °F 76% 29.49 in 10.0 mi Calm Calm - N/A   Clear
8:15 AM 44.6 °F - 37.4 °F 76% 29.49 in 10.0 mi Calm Calm - N/A   Clear
8:35 AM 46.4 °F - 37.4 °F 71% 29.48 in 10.0 mi Calm Calm - N/A   Clear
8:55 AM 50.0 °F - 41.0 °F 71% 29.46 in 10.0 mi East 3.5 mph - N/A   Clear
9:15 AM 50.0 °F - 41.0 °F 71% 29.45 in 10.0 mi East 3.5 mph - N/A   Clear
9:35 AM 51.8 °F - 41.0 °F 67% 29.43 in 10.0 mi ESE 4.6 mph - N/A   Clear
9:55 AM 53.6 °F - 41.0 °F 62% 29.42 in 10.0 mi SE 4.6 mph - N/A   Clear
10:15 AM 53.6 °F - 41.0 °F 62% 29.40 in 10.0 mi SE 5.8 mph - N/A   Clear
10:35 AM 53.6 °F - 41.0 °F 62% 29.39 in 10.0 mi SE 5.8 mph - N/A   Clear
10:55 AM 55.4 °F - 41.0 °F 58% 29.36 in 10.0 mi ESE 4.6 mph - N/A   Clear
11:15 AM 55.4 °F - 41.0 °F 58% 29.34 in 10.0 mi SE 4.6 mph - N/A   Clear
11:35 AM 59.0 °F - 42.8 °F 55% 29.32 in 10.0 mi Calm Calm - N/A   Clear
11:55 AM 60.8 °F - 41.0 °F 48% 29.29 in 10.0 mi SE 6.9 mph - N/A   Clear
12:15 PM 62.6 °F - 41.0 °F 45% 29.27 in 10.0 mi South 10.4 mph - N/A   Clear
12:35 PM 62.6 °F - 41.0 °F 45% 29.27 in 10.0 mi South 9.2 mph - N/A   Scattered Clouds
12:55 PM 62.6 °F - 41.0 °F 45% 29.26 in 10.0 mi South 6.9 mph 18.4 mph N/A   Scattered Clouds
1:15 PM 62.6 °F - 42.8 °F 48% 29.23 in 10.0 mi SSW 5.8 mph - N/A   Scattered Clouds
1:35 PM 62.6 °F - 41.0 °F 45% 29.21 in 10.0 mi SSW 6.9 mph - N/A   Scattered Clouds
1:55 PM 62.6 °F - 41.0 °F 45% 29.21 in 10.0 mi SSW 13.8 mph 20.7 mph N/A   Scattered Clouds
2:15 PM 64.4 °F - 41.0 °F 42% 29.17 in 10.0 mi South 9.2 mph 16.1 mph N/A   Scattered Clouds
2:35 PM 64.4 °F - 42.8 °F 45% 29.15 in 10.0 mi SSW 12.7 mph - N/A   Clear
2:55 PM 64.4 °F - 42.8 °F 45% 29.14 in 10.0 mi SSW 11.5 mph 19.6 mph N/A   Scattered Clouds
3:15 PM 64.4 °F - 44.6 °F 49% 29.14 in 10.0 mi SW 11.5 mph 24.2 mph N/A   Mostly Cloudy
3:35 PM 62.6 °F - 48.2 °F 59% 29.11 in 10.0 mi SSW 11.5 mph 18.4 mph N/A   Overcast
3:55 PM 62.6 °F - 48.2 °F 59% 29.10 in 10.0 mi SSW 15.0 mph 24.2 mph N/A   Overcast
4:15 PM 62.6 °F - 50.0 °F 63% 29.09 in 10.0 mi SSW 10.4 mph 21.9 mph N/A   Overcast
4:35 PM 60.8 °F - 51.8 °F 72% 29.08 in 7.0 mi SSW 15.0 mph 23.0 mph N/A   Overcast
4:55 PM 59.0 °F - 53.6 °F 82% 29.07 in 5.0 mi SSW 9.2 mph 17.3 mph N/A   Overcast
5:15 PM 60.8 °F - 53.6 °F 77% 29.05 in 10.0 mi South 10.4 mph - 0.01 in   Mostly Cloudy
5:35 PM 59.0 °F - 53.6 °F 82% 29.04 in 10.0 mi South 6.9 mph 17.3 mph 0.01 in   Overcast
5:55 PM 60.8 °F - 53.6 °F 77% 29.02 in 10.0 mi SSW 10.4 mph 17.3 mph 0.01 in   Overcast
6:15 PM 60.8 °F - 53.6 °F 77% 29.02 in 10.0 mi SSW 11.5 mph 16.1 mph N/A   Overcast
6:35 PM 60.8 °F - 53.6 °F 77% 29.02 in 10.0 mi SSW 11.5 mph 17.3 mph N/A   Overcast
6:55 PM 60.8 °F - 53.6 °F 77% 29.06 in 10.0 mi West 21.9 mph 29.9 mph N/A   Overcast
7:15 PM 55.4 °F - 50.0 °F 82% 29.07 in 3.0 mi Calm Calm - 0.16 in   Overcast
7:35 PM 53.6 °F - 50.0 °F 88% 29.06 in 3.0 mi Calm Calm - 0.19 in   Overcast
7:55 PM 53.6 °F - 50.0 °F 88% 29.05 in 3.0 mi WSW 3.5 mph - 0.23 in   Overcast
8:15 PM 53.6 °F - 50.0 °F 88% 29.06 in 3.0 mi West 3.5 mph - 0.04 in   Overcast
8:35 PM 53.6 °F - 50.0 °F 88% 29.08 in 7.0 mi West 8.1 mph 18.4 mph 0.06 in   Overcast
8:55 PM 53.6 °F - 50.0 °F 88% 29.07 in 5.0 mi West 4.6 mph - 0.07 in   Overcast
9:15 PM 53.6 °F - 46.4 °F 77% 29.07 in 10.0 mi West 11.5 mph 27.6 mph N/A   Mostly Cloudy
9:35 PM 51.8 °F - 42.8 °F 71% 29.09 in 10.0 mi West 17.3 mph 24.2 mph N/A   Mostly Cloudy
9:55 PM 41.0 °F 31.4 °F 33.8 °F 76% 29.17 in 10.0 mi WNW 21.9 mph 32.2 mph N/A   Mostly Cloudy
10:15 PM 37.4 °F 29.3 °F 32.0 °F 81% 29.20 in 10.0 mi WNW 12.7 mph 25.3 mph N/A   Mostly Cloudy
10:35 PM 35.6 °F 27.5 °F 32.0 °F 87% 29.23 in 10.0 mi WNW 11.5 mph 27.6 mph N/A   Overcast
10:55 PM 33.8 °F 25.8 °F 28.4 °F 81% 29.26 in 10.0 mi WNW 10.4 mph 27.6 mph N/A   Overcast
11:15 PM 32.0 °F 19.8 °F 26.6 °F 80% 29.28 in 10.0 mi NW 20.7 mph 31.1 mph N/A   Overcast
11:35 PM 32.0 °F 20.1 °F 23.0 °F 69% 29.29 in 10.0 mi WNW 19.6 mph 32.2 mph N/A   Overcast
11:55 PM 30.2 °F 21.3 °F 21.2 °F 69% 29.30 in 10.0 mi NW 10.4 mph 32.2 mph N/A   Overcast